Location: Central Falls
(41.8900°N, 71.3929°W)
Time: 12:13:26
(UTC+00:00)

A-11 Canister half - Pass Details

Date: 08 December 2023
Orbit: 1512 x 1687 km, 47.2° (Epoch: 20 February)

Event Time Altitude Azimuth Distance (km) Brightness Sun altitude
Rises 10:52:42 0° 297° (WNW) 4,869 - -12.2°
Reaches altitude 10° 10:55:58 10° 292° (WNW) 3,900 - -11.7°
Exits shadow 10:56:58 14° 289° (WNW) 3,617 10.3 -11.5°
Maximum altitude 11:05:19 46° 223° (SW) 2,134 9.6 -10.0°
Drops below altitude 10° 11:14:48 10° 154° (SSE) 3,943 11.9 -8.4°
Sets 11:18:08 0° 148° (SSE) 4,925 12.7 -7.8°
